Location: Kimberly
(42.5380°N, 114.3640°W)
Time: 14:46:43
(UTC-06:00)

ISS - Visible Passes

Search period start: 21 August 2019 00:00
Search period end: 31 August 2019 00:00
Orbit: 410 x 421 km, 51.6° (Epoch: 22 August)

Date Brightness Start Highest point End Pass type
(mag) Time Alt. Az. Time Alt. Az. Time Alt. Az.
25 Aug -1.1 06:09:27 10° SSE 06:11:20 14° SE 06:13:13 10° E visible
27 Aug -2.6 06:07:05 10° SSW 06:10:11 37° SE 06:13:19 10° ENE visible
28 Aug -1.8 05:20:17 18° SSE 05:21:31 22° SE 05:24:11 10° E visible
29 Aug -1.0 04:33:38 12° ESE 04:33:38 12° ESE 04:34:29 10° ESE visible
29 Aug -3.8 06:06:31 15° WSW 06:09:12 80° NNW 06:12:33 10° NE visible
30 Aug -3.5 05:19:48 48° S 05:20:24 60° SE 05:23:42 10° ENE visible
